Location: ?????
(31.8092°N, 35.2590°E)
Time: 18:35:55
(UTC+00:00)

Cosmos 2263 Rocket - Pass Details

Date: 20 June 2021
Orbit: 822 x 850 km, 71.0° (Epoch: 31 July)

Event Time Altitude Azimuth Distance (km) Brightness Sun altitude
Rises 18:02:42 0° 333° (NNW) 3,416 6.7 -14.1°
Reaches altitude 10° 18:05:12 10° 329° (NNW) 2,478 5.8 -14.5°
Maximum altitude 18:10:42 52° 254° (WSW) 1,042 2.9 -15.4°
Enters shadow 18:15:52 12° 180° (S) 2,348 4.1 -16.2°
